Location: Daytona Beach
(29.2106°N, 81.0231°W)
Time: 16:47:06
(UTC-04:00)

PSAT 2 - Pass Details

Date: 28 September 2021
Orbit: 299 x 726 km, 28.5° (Epoch: 15 October)

Event Time Altitude Azimuth Distance (km) Brightness Sun altitude
Rises 21:30:20 0° 264° (W) 3,113 ? -30.5°
Reaches altitude 10° 21:33:51 10° 241° (WSW) 2,214 ? -31.3°
Enters shadow 21:36:15 14° 214° (SW) 1,932 ? -31.8°
